Vagabond Aaf / Yakim, WA

1:48 PM PDT on March 27, 2017 (GMT -0700)
Vagabond Aaf / Yakim

Weather History for K1YT - October, 2013

Change the Weather History Date:

Saturday, October 5, 2013

  Actual Average (KYKM) Record (KYKM)
Temperature  
Mean Temperature 52 °F -  
Max Temperature 68 °F 70 °F 86 °F (1980)
Min Temperature 36 °F 36 °F 28 °F (1927)
Degree Days  
Heating Degree Days 14    
Growing Degree Days 2 (Base 50)    
Moisture  
Dew Point 35 °F    
Average Humidity 59    
Maximum Humidity 87    
Minimum Humidity 29    
Precipitation  
Precipitation 0.00 in - - ()
Sea Level Pressure  
Sea Level Pressure 30.33 in    
Wind  
Wind Speed 3 mph ()    
Max Wind Speed 10 mph    
Max Gust Speed 13 mph    
Visibility 12.0 miles    
Events      
Averages and records for this station are not official NWS values.
T = Trace of Precipitation, MM = Missing Value Source: Averaged Metar Reports

Daily Weather History Graph

Daily Weather History Graph

Search for Another Location

Airport or City:

Trip Planner

Search our weather history database for the weather conditions in past years. The results will help you decide how hot, cold, wet, or windy it might be!

Date:

Astronomy

Oct. 05, 2013 Rise Set
Actual Time 7:06 AM PDT 6:33 PM PDT
Civil Twilight 6:36 AM PDT 7:03 PM PDT
Nautical Twilight 6:01 AM PDT 7:38 PM PDT
Astronomical Twilight 5:25 AM PDT 8:13 PM PDT
Moon 7:56 AM PDT (10/5) 6:49 PM PDT (10/5)
Length of Visible Light 12h 27m
Length of Day
11h 26m
New Moon, 1% of the Moon is Illuminated
Oct 5
New Moon
Oct 11
First Quarter
Oct 18
Full
Oct 26
Last Quarter
Nov 3
New

Hourly Weather History & Observations

Time (PDT) Temp. Windchill Dew Point Humidity Pressure Visibility Wind Dir Wind Speed Gust Speed Precip Events Conditions
12:56 AM 42.3 °F - 34.3 °F 74% 30.41 in 12.0 mi Variable 2.3 mph - N/A   Clear
1:56 AM 39.7 °F - 33.6 °F 79% 30.42 in 12.0 mi Variable 1.2 mph - N/A   Clear
2:56 AM 41.4 °F - 34.3 °F 76% 30.41 in 12.0 mi SW 2.3 mph - N/A   Clear
4:56 AM 37.0 °F 34.5 °F 32.2 °F 83% 30.39 in 12.0 mi East 3.5 mph - N/A   Clear
5:56 AM 37.8 °F - 32.4 °F 81% 30.39 in 12.0 mi West 2.3 mph - N/A   Partly Cloudy
6:56 AM 36.9 °F - 31.8 °F 82% 30.40 in 12.0 mi ESE 1.2 mph - N/A   Clear
7:56 AM 36.9 °F - 33.4 °F 87% 30.40 in 12.0 mi West 2.3 mph - N/A   Clear
8:56 AM 44.1 °F - 34.2 °F 68% 30.41 in 12.0 mi Variable 1.2 mph - N/A   Clear
9:56 AM 48.7 °F - 36.5 °F 63% 30.40 in 12.0 mi West 3.5 mph - N/A   Clear
10:56 AM 53.2 °F - 37.6 °F 55% 30.39 in 12.0 mi North 4.6 mph - N/A   Clear
11:56 AM 57.6 °F - 37.0 °F 46% 30.37 in 12.0 mi WNW 4.6 mph - N/A   Clear
12:56 PM 61.3 °F - 34.9 °F 37% 30.34 in 12.0 mi Variable 2.3 mph - N/A   Clear
1:56 PM 65.8 °F - 34.0 °F 31% 30.31 in 12.0 mi SW 10.4 mph - N/A   Clear
2:56 PM 66.6 °F - 34.7 °F 31% 30.29 in 12.0 mi Variable 4.6 mph 12.7 mph N/A   Clear
3:56 PM 67.5 °F - 33.8 °F 29% 30.28 in 12.0 mi SSW 9.2 mph - N/A   Clear
4:56 PM 66.9 °F - 34.2 °F 30% 30.26 in 12.0 mi SW 10.4 mph - N/A   Clear
5:56 PM 63.7 °F - 36.9 °F 37% 30.25 in 12.0 mi West 3.5 mph - N/A   Clear
6:56 PM 59.5 °F - 37.9 °F 45% 30.25 in 12.0 mi Calm Calm - N/A   Clear
7:56 PM 55.2 °F - 36.7 °F 50% 30.25 in 12.0 mi South 3.5 mph - N/A   Clear
8:56 PM 49.1 °F - 35.2 °F 59% 30.26 in 12.0 mi Variable 1.2 mph - N/A   Clear
9:56 PM 46.0 °F 44.8 °F 35.4 °F 66% 30.26 in 12.0 mi WSW 3.5 mph - N/A   Clear
10:56 PM 45.9 °F - 35.6 °F 67% 30.26 in 12.0 mi ESE 2.3 mph - N/A   Clear
11:56 PM 44.1 °F 42.5 °F 36.0 °F 73% 30.25 in 12.0 mi SSW 3.5 mph - N/A   Clear